Time,TemperatureF,DewpointF,PressureIn,WindDirection,WindDirectionDegrees,WindSpeedMPH,WindSpeedGustMPH,Humidity,HourlyPrecipIn,Conditions,Clouds,dailyrainin,SoftwareType,DateUTC
2013-06-16 00:04:00,85.6,50.6,29.83,West,270,1.7,-999.0,30,-99.99,,,0.00,Acu-Link.com,2013-06-16 06:04:00,
2013-06-16 00:19:00,84.4,51.3,29.82,SW,225,0.0,-999.0,32,-99.99,,,0.00,Acu-Link.com,2013-06-16 06:19:00,
2013-06-16 00:34:00,83.3,52.0,29.82,NW,315,2.7,-999.0,34,-99.99,,,0.00,Acu-Link.com,2013-06-16 06:34:00,
2013-06-16 00:50:00,83.1,51.8,29.82,West,270,2.7,-999.0,34,-99.99,,,0.00,Acu-Link.com,2013-06-16 06:50:00,
2013-06-16 01:05:00,83.1,51.0,29.83,West,270,1.1,-999.0,33,-99.99,,,0.00,Acu-Link.com,2013-06-16 07:05:00,
2013-06-16 01:20:00,82.6,50.6,29.82,NNW,337,1.7,-999.0,33,-99.99,,,0.00,Acu-Link.com,2013-06-16 07:20:00,
2013-06-16 01:36:00,82.2,49.4,29.82,West,270,0.0,-999.0,32,-99.99,,,0.00,Acu-Link.com,2013-06-16 07:36:00,
2013-06-16 01:51:00,81.3,48.6,29.82,NE,45,1.7,-999.0,32,-99.99,,,0.00,Acu-Link.com,2013-06-16 07:51:00,
2013-06-16 02:06:00,82.0,50.0,29.81,ENE,67,2.7,-999.0,33,-99.99,,,0.00,Acu-Link.com,2013-06-16 08:06:00,
2013-06-16 02:21:00,81.9,48.3,29.82,NW,315,2.7,-999.0,31,-99.99,,,0.00,Acu-Link.com,2013-06-16 08:21:00,
2013-06-16 02:36:00,82.2,46.8,29.82,NNW,337,7.3,-999.0,29,-99.99,,,0.00,Acu-Link.com,2013-06-16 08:36:00,
2013-06-16 02:52:00,79.9,50.5,29.82,WNW,292,5.8,-999.0,36,-99.99,,,0.00,Acu-Link.com,2013-06-16 08:52:00,
2013-06-16 03:15:00,79.0,51.2,29.82,NNW,337,6.3,-999.0,38,-99.99,,,0.00,Acu-Link.com,2013-06-16 09:15:00,
2013-06-16 03:30:00,78.3,52.0,29.82,NNW,337,6.8,-999.0,40,-99.99,,,0.00,Acu-Link.com,2013-06-16 09:30:00,
2013-06-16 03:45:00,78.4,52.7,29.82,NW,315,6.8,-999.0,41,-99.99,,,0.00,Acu-Link.com,2013-06-16 09:45:00,
2013-06-16 04:00:00,78.8,52.4,29.81,NNW,337,7.3,-999.0,40,-99.99,,,0.00,Acu-Link.com,2013-06-16 10:00:00,
2013-06-16 04:15:00,79.0,51.9,29.81,North,0,4.7,-999.0,39,-99.99,,,0.00,Acu-Link.com,2013-06-16 10:15:00,
2013-06-16 04:30:00,79.0,51.9,29.81,NW,315,7.8,-999.0,39,-99.99,,,0.00,Acu-Link.com,2013-06-16 10:30:00,
2013-06-16 04:45:00,78.8,51.7,29.81,NNW,337,10.4,-999.0,39,-99.99,,,0.00,Acu-Link.com,2013-06-16 10:45:00,
2013-06-16 05:00:00,77.9,51.6,29.83,NNW,337,6.8,-999.0,40,-99.99,,,0.00,Acu-Link.com,2013-06-16 11:00:00,
2013-06-16 05:15:00,76.6,51.1,29.84,North,0,8.9,-999.0,41,-99.99,,,0.00,Acu-Link.com,2013-06-16 11:15:00,
2013-06-16 05:31:00,75.9,51.1,29.84,NNW,337,5.3,-999.0,42,-99.99,,,0.00,Acu-Link.com,2013-06-16 11:31:00,
2013-06-16 05:46:00,75.4,51.3,29.85,North,0,6.3,-999.0,43,-99.99,,,0.00,Acu-Link.com,2013-06-16 11:46:00,
2013-06-16 06:01:00,75.0,51.6,29.85,NNW,337,3.7,-999.0,44,-99.99,,,0.00,Acu-Link.com,2013-06-16 12:01:00,
2013-06-16 06:16:00,74.7,51.9,29.87,North,0,6.8,-999.0,45,-99.99,,,0.00,Acu-Link.com,2013-06-16 12:16:00,
2013-06-16 06:31:00,74.7,51.9,29.86,NW,315,4.2,-999.0,45,-99.99,,,0.00,Acu-Link.com,2013-06-16 12:31:00,
2013-06-16 06:46:00,74.5,51.7,29.85,NNW,337,6.3,-999.0,45,-99.99,,,0.00,Acu-Link.com,2013-06-16 12:46:00,
2013-06-16 07:01:00,75.0,52.8,29.86,NNW,337,4.2,-999.0,46,-99.99,,,0.00,Acu-Link.com,2013-06-16 13:01:00,
2013-06-16 07:17:00,77.0,52.8,29.87,NW,315,6.3,-999.0,43,-99.99,,,0.00,Acu-Link.com,2013-06-16 13:17:00,
2013-06-16 07:32:00,79.3,52.9,29.86,NNW,337,8.9,-999.0,40,-99.99,,,0.00,Acu-Link.com,2013-06-16 13:32:00,
2013-06-16 07:47:00,81.0,53.0,29.87,NNE,22,6.3,-999.0,38,-99.99,,,0.00,Acu-Link.com,2013-06-16 13:47:00,
2013-06-16 08:02:00,81.9,52.3,29.87,WNW,292,6.8,-999.0,36,-99.99,,,0.00,Acu-Link.com,2013-06-16 14:02:00,
2013-06-16 08:17:00,83.7,52.3,29.88,North,0,7.8,-999.0,34,-99.99,,,0.00,Acu-Link.com,2013-06-16 14:17:00,
2013-06-16 08:32:00,83.7,50.7,29.88,NW,315,8.3,-999.0,32,-99.99,,,0.00,Acu-Link.com,2013-06-16 14:32:00,
2013-06-16 08:47:00,85.5,50.5,29.88,NW,315,4.7,-999.0,30,-99.99,,,0.00,Acu-Link.com,2013-06-16 14:47:00,
2013-06-16 09:02:00,84.9,49.1,29.88,West,270,6.8,-999.0,29,-99.99,,,0.00,Acu-Link.com,2013-06-16 15:02:00,
2013-06-16 09:17:00,84.0,48.3,29.88,North,0,5.8,-999.0,29,-99.99,,,0.00,Acu-Link.com,2013-06-16 15:17:00,
2013-06-16 09:32:00,85.3,48.5,29.88,NNW,337,5.3,-999.0,28,-99.99,,,0.00,Acu-Link.com,2013-06-16 15:32:00,
2013-06-16 09:47:00,86.4,47.4,29.88,NNW,337,4.7,-999.0,26,-99.99,,,0.00,Acu-Link.com,2013-06-16 15:47:00,
2013-06-16 10:02:00,87.8,47.6,29.88,NNW,337,7.3,-999.0,25,-99.99,,,0.00,Acu-Link.com,2013-06-16 16:02:00,
2013-06-16 10:18:00,89.2,47.7,29.88,NNW,337,9.4,-999.0,24,-99.99,,,0.00,Acu-Link.com,2013-06-16 16:18:00,
2013-06-16 10:33:00,88.7,47.2,29.87,North,0,7.3,-999.0,24,-99.99,,,0.00,Acu-Link.com,2013-06-16 16:33:00,
2013-06-16 10:48:00,91.2,48.2,29.88,North,0,8.9,-999.0,23,-99.99,,,0.00,Acu-Link.com,2013-06-16 16:48:00,
2013-06-16 11:03:00,93.4,48.8,29.88,NE,45,7.8,-999.0,22,-99.99,,,0.00,Acu-Link.com,2013-06-16 17:03:00,
2013-06-16 11:18:00,93.7,47.8,29.89,NW,315,6.8,-999.0,21,-99.99,,,0.00,Acu-Link.com,2013-06-16 17:18:00,
2013-06-16 11:33:00,92.8,47.1,29.88,WNW,292,4.2,-999.0,21,-99.99,,,0.00,Acu-Link.com,2013-06-16 17:33:00,
2013-06-16 11:49:00,93.6,46.4,29.88,NNW,337,5.8,-999.0,20,-99.99,,,0.00,Acu-Link.com,2013-06-16 17:49:00,
2013-06-16 12:04:00,93.7,47.8,29.87,NNW,337,2.7,-999.0,21,-99.99,,,0.00,Acu-Link.com,2013-06-16 18:04:00,
2013-06-16 12:19:00,94.3,48.3,29.87,WNW,292,4.7,-999.0,21,-99.99,,,0.00,Acu-Link.com,2013-06-16 18:19:00,
2013-06-16 12:34:00,96.4,47.4,29.85,North,0,2.7,-999.0,19,-99.99,,,0.00,Acu-Link.com,2013-06-16 18:34:00,
2013-06-16 12:50:00,97.0,49.2,29.85,WSW,247,3.7,-999.0,20,-99.99,,,0.00,Acu-Link.com,2013-06-16 18:50:00,
2013-06-16 13:05:00,98.4,47.5,29.84,SSW,202,3.2,-999.0,18,-99.99,,,0.00,Acu-Link.com,2013-06-16 19:05:00,
2013-06-16 13:21:00,100.6,47.8,29.85,NNE,22,2.7,-999.0,17,-99.99,,,0.00,Acu-Link.com,2013-06-16 19:21:00,
2013-06-16 13:37:00,98.6,47.7,29.83,WNW,292,7.3,-999.0,18,-99.99,,,0.00,Acu-Link.com,2013-06-16 19:37:00,
2013-06-16 13:52:00,96.4,48.7,29.83,NNE,22,4.7,-999.0,20,-99.99,,,0.00,Acu-Link.com,2013-06-16 19:52:00,
2013-06-16 14:07:00,99.7,50.0,29.82,West,270,3.2,-999.0,19,-99.99,,,0.00,Acu-Link.com,2013-06-16 20:07:00,
2013-06-16 14:23:00,100.0,48.8,29.81,North,0,3.2,-999.0,18,-99.99,,,0.00,Acu-Link.com,2013-06-16 20:23:00,
2013-06-16 14:39:00,101.1,48.2,29.80,ESE,112,3.7,-999.0,17,-99.99,,,0.00,Acu-Link.com,2013-06-16 20:39:00,
2013-06-16 14:55:00,100.8,49.5,29.79,SSE,157,7.8,-999.0,18,-99.99,,,0.00,Acu-Link.com,2013-06-16 20:55:00,
2013-06-16 15:10:00,100.8,49.5,29.79,WSW,247,4.7,-999.0,18,-99.99,,,0.00,Acu-Link.com,2013-06-16 21:10:00,
2013-06-16 15:26:00,100.6,49.3,29.79,SW,225,6.3,-999.0,18,-99.99,,,0.00,Acu-Link.com,2013-06-16 21:26:00,
2013-06-16 15:41:00,101.1,49.7,29.78,South,180,5.3,-999.0,18,-99.99,,,0.00,Acu-Link.com,2013-06-16 21:41:00,
2013-06-16 15:56:00,100.9,49.6,29.77,South,180,6.8,-999.0,18,-99.99,,,0.00,Acu-Link.com,2013-06-16 21:56:00,
2013-06-16 16:12:00,100.2,49.0,29.77,SW,225,5.3,-999.0,18,-99.99,,,0.00,Acu-Link.com,2013-06-16 22:12:00,
2013-06-16 16:28:00,103.3,49.9,29.77,NW,315,5.3,-999.0,17,-99.99,,,0.00,Acu-Link.com,2013-06-16 22:28:00,
2013-06-16 16:43:00,100.6,47.8,29.77,North,0,3.7,-999.0,17,-99.99,,,0.00,Acu-Link.com,2013-06-16 22:43:00,
2013-06-16 16:59:00,99.9,48.8,29.77,SE,135,4.7,-999.0,18,-99.99,,,0.00,Acu-Link.com,2013-06-16 22:59:00,
2013-06-16 17:14:00,99.9,48.8,29.76,NW,315,2.2,-999.0,18,-99.99,,,0.00,Acu-Link.com,2013-06-16 23:14:00,
2013-06-16 17:29:00,100.9,49.6,29.76,SW,225,3.2,-999.0,18,-99.99,,,0.00,Acu-Link.com,2013-06-16 23:29:00,
2013-06-16 17:44:00,102.9,49.6,29.76,WSW,247,2.2,-999.0,17,-99.99,,,0.00,Acu-Link.com,2013-06-16 23:44:00,
2013-06-16 17:59:00,105.8,48.6,29.75,WNW,292,3.2,-999.0,15,-99.99,,,0.00,Acu-Link.com,2013-06-16 23:59:00,
2013-06-16 18:14:00,101.1,48.2,29.75,SSW,202,4.7,-999.0,17,-99.99,,,0.00,Acu-Link.com,2013-06-17 00:14:00,
2013-06-16 18:30:00,101.1,48.2,29.76,SW,225,2.7,-999.0,17,-99.99,,,0.00,Acu-Link.com,2013-06-17 00:30:00,
2013-06-16 18:45:00,97.3,46.7,29.75,SSE,157,4.7,-999.0,18,-99.99,,,0.00,Acu-Link.com,2013-06-17 00:45:00,
2013-06-16 19:00:00,97.2,48.0,29.74,South,180,5.3,-999.0,19,-99.99,,,0.00,Acu-Link.com,2013-06-17 01:00:00,
2013-06-16 19:15:00,96.1,47.1,29.74,SE,135,5.3,-999.0,19,-99.99,,,0.00,Acu-Link.com,2013-06-17 01:15:00,
2013-06-16 19:30:00,94.5,48.5,29.76,SW,225,8.3,-999.0,21,-99.99,,,0.00,Acu-Link.com,2013-06-17 01:30:00,
2013-06-16 19:46:00,93.2,47.4,29.76,SSW,202,3.2,-999.0,21,-99.99,,,0.00,Acu-Link.com,2013-06-17 01:46:00,
2013-06-16 20:01:00,93.0,47.3,29.76,SSE,157,3.2,-999.0,21,-99.99,,,0.00,Acu-Link.com,2013-06-17 02:01:00,
2013-06-16 20:17:00,93.0,47.3,29.77,SW,225,4.2,-999.0,21,-99.99,,,0.00,Acu-Link.com,2013-06-17 02:17:00,
2013-06-16 20:32:00,92.1,51.2,29.77,West,270,6.3,-999.0,25,-99.99,,,0.00,Acu-Link.com,2013-06-17 02:32:00,
2013-06-16 20:47:00,91.8,49.8,29.77,WSW,247,4.2,-999.0,24,-99.99,,,0.00,Acu-Link.com,2013-06-17 02:47:00,
2013-06-16 21:02:00,90.3,50.7,29.78,SW,225,8.3,-999.0,26,-99.99,,,0.00,Acu-Link.com,2013-06-17 03:02:00,
2013-06-16 21:17:00,85.6,54.0,29.79,SSE,157,4.7,-999.0,34,-99.99,,,0.00,Acu-Link.com,2013-06-17 03:17:00,
2013-06-16 21:32:00,86.5,51.4,29.80,WSW,247,7.3,-999.0,30,-99.99,,,0.00,Acu-Link.com,2013-06-17 03:32:00,
2013-06-16 21:47:00,86.7,53.3,29.82,WNW,292,6.8,-999.0,32,-99.99,,,0.00,Acu-Link.com,2013-06-17 03:47:00,
2013-06-16 22:09:00,86.2,52.8,29.82,NW,315,0.0,-999.0,32,-99.99,,,0.00,Acu-Link.com,2013-06-17 04:09:00,
2013-06-16 22:24:00,86.2,52.0,29.81,South,180,1.7,-999.0,31,-99.99,,,0.00,Acu-Link.com,2013-06-17 04:24:00,
2013-06-16 22:39:00,86.2,52.8,29.82,West,270,1.7,-999.0,32,-99.99,,,0.00,Acu-Link.com,2013-06-17 04:39:00,
2013-06-16 22:55:00,85.6,52.3,29.82,SW,225,0.0,-999.0,32,-99.99,,,0.00,Acu-Link.com,2013-06-17 04:55:00,
2013-06-16 23:10:00,85.5,51.4,29.82,WSW,247,3.2,-999.0,31,-99.99,,,0.00,Acu-Link.com,2013-06-17 05:10:00,
2013-06-16 23:25:00,85.6,51.5,29.83,West,270,2.7,-999.0,31,-99.99,,,0.00,Acu-Link.com,2013-06-17 05:25:00,
2013-06-16 23:40:00,85.3,50.3,29.83,NW,315,3.7,-999.0,30,-99.99,,,0.00,Acu-Link.com,2013-06-17 05:40:00,
2013-06-16 23:56:00,84.9,54.2,29.83,NE,45,3.7,-999.0,35,-99.99,,,0.00,Acu-Link.com,2013-06-17 05:56:00,